This is the latest recevied weather packets stored in our database for station/object K1KOF. If no packets are shown the sender has not sent any weather packets the latest 10 day(s).
| Time | Temp. | Humidity | Pressure | Rain* | Wind** | Luminosity | Snow |
|---|---|---|---|---|---|---|---|
| 1777844610 | 21.11° C | 44% | 1027 hPa | 0 mm | - | 336 W/m² | - |
| 1777844308 | 22.22° C | 42% | 1026.9 hPa | 0 mm | - | 228 W/m² | - |
| 1777844005 | 22.22° C | 40% | 1027 hPa | 0 mm | - | 418 W/m² | - |
| 1777843702 | 21.67° C | 41% | 1026.9 hPa | 0 mm | - | 335 W/m² | - |
| 1777843400 | 21.67° C | 41% | 1026.9 hPa | 0 mm | - | 385 W/m² | - |
| 1777843097 | 22.22° C | 41% | 1027 hPa | 0 mm | - | 378 W/m² | - |
| 1777842794 | 22.22° C | 41% | 1026.9 hPa | 0 mm | - | 472 W/m² | - |
| 1777842494 | 22.22° C | 41% | 1027 hPa | 0 mm | - | 385 W/m² | - |
| 1777842191 | 21.67° C | 42% | 1027.1 hPa | 0 mm | - | 340 W/m² | - |
| 1777841886 | 21.67° C | 38% | 1027.1 hPa | 0 mm | - | 493 W/m² | - |
| 1777841583 | 21.67° C | 42% | 1027.1 hPa | 0 mm | - | 388 W/m² | - |
| 1777841280 | 21.11° C | 43% | 1027.1 hPa | 0 mm | - | 548 W/m² | - |
| 1777840977 | 21.11° C | 43% | 1027.2 hPa | 0 mm | - | 566 W/m² | - |
| 1777840674 | 21.67° C | 44% | 1027.3 hPa | 0 mm | - | 486 W/m² | - |
| 1777840372 | 21.11° C | 43% | 1027.3 hPa | 0 mm | - | 533 W/m² | - |
| 1777840068 | 21.11° C | 43% | 1027.5 hPa | 0 mm | - | 629 W/m² | - |
| 1777839767 | 21.11° C | 43% | 1027.4 hPa | 0 mm | - | 624 W/m² | - |
| 1777839464 | 21.67° C | 42% | 1027.5 hPa | 0 mm | - | 647 W/m² | - |
| 1777839161 | 22.22° C | 42% | 1027.5 hPa | 0 mm | - | 590 W/m² | - |
| 1777838858 | 21.67° C | 42% | 1027.7 hPa | 0 mm | - | 641 W/m² | - |
| 1777838554 | 21.11° C | 41% | 1027.9 hPa | 0 mm | - | 416 W/m² | - |
| 1777838251 | 20.56° C | 43% | 1028 hPa | 0 mm | - | 369 W/m² | - |
| 1777837948 | 21.67° C | 44% | 1028 hPa | 0 mm | - | 548 W/m² | - |
| 1777837646 | 21.67° C | 44% | 1028.3 hPa | 0 mm | - | 674 W/m² | - |
| 1777837341 | 21.11° C | 43% | 1028.4 hPa | 0 mm | - | 705 W/m² | - |
* Rain latest hour (hover to see other rain measurements)
** Current wind speed in m/s (hover to see current wind gust speed)